[[{"header":{"parameterUnit":"m.s-1","parameterCategory":1,"la1":30.2991,"la2":30.254,"lo1":-89.0895,"lo2":-89.0444,"dy":0.0017,"dx":0.0017,"nx":28,"ny":28,"refTime":"2024-08-14T09:00:00:Z","depth":0,"parameterNumber":2,"parameterNumberName":"U-component_of_WINDS"},"data":[0,0,0,0,0,0,0,0,0,0,0,0,0,0,0,0,0,0,0,0,0,0,0,0,0,0,0,0,0,0,0,0,0,0,0,0,0,0,0,0,0,0,0,0,0,0,0,0,0,0,0,0,0,0,0,0,0,0,1.1373,1.1374,0,1.1426,1.1426,1.1427,1.1433,1.1433,1.1432,1.1432,1.1482,1.1484,1.1485,0,0,0,0,0,0,0,0,0,0,0,0,0,1.1274,1.1276,1.1373,1.1374,1.1374,1.1426,1.1426,1.1427,1.1433,1.1433,1.1432,1.1432,1.1481,1.1483,1.1486,0,0,0,0,0,0,0,0,0,0,0,0,0,1.1321,1.1276,1.1373,1.1384,1.1385,1.1426,1.1426,1.1427,1.1434,1.1433,1.1432,1.1431,1.1481,1.1483,1.1486,1.1518,0,0,1.1494,1.1495,0,0,0,0,0,0,0,0,1.1318,1.1324,1.1381,1.1383,1.1385,1.1422,1.141,1.1457,1.1434,1.1415,1.1432,1.1431,1.1462,1.1467,1.1478,1.152,1.1522,1.1494,1.1496,1.1497,1.1498,0,0,0,0,0,0,0,1.1315,1.1322,1.1394,1.1382,1.1384,1.1385,1.1391,1.1419,1.1442,1.1417,1.1417,1.1424,1.1463,1.1475,1.1479,1.1523,1.1494,1.1497,1.1498,1.1499,1.1594,1.1595,0,0,0,0,0,0,1.131,1.1319,1.1392,1.1395,1.1349,1.1387,1.1394,1.1411,1.1442,1.1446,1.1424,1.1424,1.1471,1.1476,1.1481,1.1521,1.1497,1.15,1.1501,1.1593,1.1595,1.1596,0,0,0,0,0,0,1.1308,1.1317,1.139,1.1358,1.1367,1.139,1.1409,1.1412,1.1425,1.1448,1.1452,1.1433,1.1471,1.1477,1.1509,1.1523,1.1501,1.1503,1.1592,1.1594,1.1595,1.1601,0,0,0,0,0,0,1.1305,1.1316,1.1329,1.1358,1.1369,1.1418,1.141,1.1414,1.143,1.143,1.1457,1.146,1.1471,1.1505,1.1512,1.1526,1.1505,1.1591,1.1593,1.1595,1.1599,1.1602,1.1605,0,0,0,0,0,1.1302,1.1327,1.133,1.1338,1.1386,1.1419,1.1425,1.1437,1.1431,1.1444,1.1459,1.146,1.152,1.1508,1.1516,1.1531,1.159,1.1593,1.1595,1.1598,1.1602,1.1604,0,0,0,0,0,0,1.1297,1.1331,1.1334,1.137,1.1392,1.142,1.1437,1.144,1.1463,1.1462,1.1475,1.1481,1.1512,1.1525,1.1511,1.1564,1.1555,1.1558,1.1555,1.1558,1.1561,1.1557,1.1508,0,0,0,0,0,1.1301,1.1326,1.1354,1.1383,1.1394,1.1413,1.1428,1.1436,1.1458,1.1467,1.1484,1.1505,1.1529,1.1544,1.1567,1.1601,1.1607,1.1616,1.1618,1.162,1.1623,1.1643,1.1647,1.1602,1.1602,1.1602,0,0,1.1308,1.1329,1.1344,1.1383,1.14,1.1425,1.1421,1.1447,1.1466,1.1471,1.1503,1.1516,1.154,1.1573,1.1589,1.1584,1.1637,1.1623,1.1624,1.1626,1.1645,1.1649,1.1653,1.1604,1.1603,1.1603,0,0,1.1333,1.1352,1.1379,1.1398,1.1425,1.1438,1.1445,1.1473,1.1483,1.1515,1.152,1.1541,1.1581,1.1599,1.1613,1.1646,1.1648,1.1653,1.1666,1.1685,1.1689,1.1692,1.1704,1.1708,1.1656,1.1656,1.1656,0,1.1338,1.1377,1.1392,1.1419,1.1436,1.1443,1.147,1.1487,1.152,1.1531,1.1526,1.1578,1.1594,1.1632,1.1641,1.1652,1.1659,1.165,1.1687,1.1691,1.1694,1.1706,1.171,1.1657,1.1657,1.1656,1.1656,0,1.1382,1.1409,1.1427,1.1462,1.148,1.1507,1.1525,1.1542,1.1548,1.1561,1.1594,1.1615,1.1642,1.1652,1.1657,1.1691,1.1687,1.1685,1.1676,1.1698,1.171,1.1714,1.1657,1.1657,1.1657,1.1657,0,0,1.1405,1.1449,1.1455,1.1471,1.1503,1.1524,1.1551,1.158,1.1594,1.1616,1.1639,1.1674,1.1672,1.1688,1.1696,1.1713,1.1739,1.1708,1.1709,1.1713,1.1777,1.1779,1.1784,1.174,1.1741,1.1742,1.1775,0,1.1435,1.1485,1.15,1.1542,1.1567,1.1575,1.1599,1.162,1.1633,1.1656,1.167,1.1695,1.169,1.17,1.1717,1.1732,1.1751,1.173,1.176,1.1761,1.1755,1.179,1.1792,1.1822,1.1779,1.178,1.1781,0,1.1476,1.1502,1.1547,1.1577,1.1588,1.1609,1.1637,1.1659,1.1683,1.1692,1.1711,1.1717,1.1745,1.1734,1.1772,1.1757,1.1771,1.178,1.1781,1.1785,1.1773,1.1794,1.1832,1.1837,1.1788,1.1787,1.1787,0,1.1489,1.1535,1.1569,1.1582,1.1617,1.1632,1.1647,1.1671,1.1688,1.1712,1.1723,1.1749,1.1763,1.1783,1.1796,1.1788,1.1834,1.1824,1.1841,1.184,1.185,1.1849,1.1891,1.1858,1.1858,1.1858,1.1858,0,1.1521,1.1548,1.1575,1.1596,1.1627,1.1643,1.1672,1.1687,1.1709,1.1731,1.1739,1.176,1.1776,1.1799,1.1809,1.184,1.1846,1.1853,1.1855,1.1852,1.1851,1.1861,1.1859,1.1859,1.1859,1.1859,1.1859,0,1.1541,1.156,1.1597,1.1629,1.1637,1.1658,1.1684,1.1704,1.1718,1.1747,1.1754,1.1776,1.1803,1.1819,1.1852,1.1859,1.1893,1.1894,1.1886,1.1887,1.1903,1.1901,1.1952,1.196,1.1922,1.1922,1.1923,0,1.156,1.1582,1.1616,1.1633,1.1649,1.1676,1.1694,1.171,1.1728,1.1758,1.1774,1.1803,1.1826,1.1869,1.1887,1.1913,1.1915,1.1931,1.1919,1.1915,1.1916,1.1914,1.1917,1.1933,1.1934,1.1934,1.1934,0,1.1592,1.1601,1.1627,1.1658,1.1679,1.1703,1.1727,1.174,1.176,1.178,1.1809,1.1828,1.1863,1.1891,1.1919,1.1933,1.1937,1.1938,1.1943,1.194,1.1935,1.1938,1.1892,1.1937,1.1936,1.1936,1.1936,1.1936,1.1612,1.1632,1.166,1.169,1.171,1.1732,1.1753,1.177,1.1795,1.1827,1.1835,1.1866,1.189,1.1928,1.1943,1.1966,1.1963,1.1971,1.1973,1.1974,1.1975,1.1931,1.1971,1.1971,1.1971,1.1971,1.1971,0,1.1645,1.1664,1.1691,1.1725,1.1748,1.1752,1.1778,1.1797,1.1825,1.1848,1.1872,1.1905,1.1933,1.1953,1.1981,1.1996,1.1998,1.2003,1.2001,1.2005,1.1976,1.1969,1.2,1.2,1.2,1.2,1.2,1.2,1.1664,1.1699,1.1711,1.1756,1.1774,1.1806,1.1821,1.1841,1.186,1.1898,1.1922,1.1936,1.1958,1.1987,1.2012,1.2018,1.2027,1.2031,1.2037,1.201,1.2007,1.2004,1.1997,1.2033,1.2034,1.2063,1.2064,1.2064]},{"header":{"parameterUnit":"m.s-1","parameterCategory":1,"la1":30.2991,"la2":30.254,"lo1":-89.0895,"lo2":-89.0444,"dy":0.0017,"dx":0.0017,"nx":28,"ny":28,"refTime":"2024-08-14T09:00:00:Z","depth":0,"parameterNumber":3,"parameterNumberName":"V-component_of_WINDS"},"data":[0,0,0,0,0,0,0,0,0,0,0,0,0,0,0,0,0,0,0,0,0,0,0,0,0,0,0,0,0,0,0,0,0,0,0,0,0,0,0,0,0,0,0,0,0,0,0,0,0,0,0,0,0,0,0,0,0,0,2.5274,2.5274,0,2.5323,2.5324,2.5325,2.5379,2.538,2.5381,2.5381,2.5431,2.5432,2.5433,0,0,0,0,0,0,0,0,0,0,0,0,0,2.5224,2.5225,2.5274,2.5274,2.5275,2.5323,2.5324,2.5325,2.5379,2.538,2.5381,2.5382,2.5431,2.5432,2.5433,0,0,0,0,0,0,0,0,0,0,0,0,0,2.5257,2.5225,2.5274,2.5308,2.5311,2.5323,2.5324,2.5325,2.5379,2.538,2.5381,2.5382,2.5431,2.5432,2.5433,2.5415,0,0,2.5436,2.5436,0,0,0,0,0,0,0,0,2.5255,2.5259,2.5302,2.5305,2.5309,2.5346,2.5325,2.5355,2.5378,2.5353,2.5381,2.5383,2.5402,2.5405,2.5412,2.5417,2.5419,2.5436,2.5436,2.5437,2.5437,0,0,0,0,0,0,0,2.5253,2.5257,2.5293,2.5303,2.5307,2.532,2.5326,2.5331,2.537,2.5355,2.5359,2.5365,2.5404,2.5411,2.5414,2.542,2.5436,2.5436,2.5437,2.5437,2.5411,2.541,0,0,0,0,0,0,2.5246,2.5255,2.5292,2.5295,2.5285,2.532,2.5327,2.5333,2.537,2.5377,2.5364,2.5367,2.5409,2.5413,2.5416,2.5396,2.5437,2.5437,2.5438,2.5413,2.5411,2.541,0,0,0,0,0,0,2.5244,2.5248,2.529,2.5276,2.5282,2.532,2.5326,2.5334,2.5341,2.5377,2.5384,2.5363,2.541,2.5414,2.5414,2.5399,2.5438,2.5439,2.5414,2.5412,2.541,2.5358,0,0,0,0,0,0,2.5243,2.5248,2.5241,2.5275,2.5283,2.5288,2.5326,2.5334,2.5342,2.5347,2.5378,2.5385,2.5411,2.5413,2.5415,2.5401,2.5439,2.5416,2.5413,2.5411,2.5361,2.5354,2.5349,0,0,0,0,0,2.5241,2.5225,2.5241,2.5245,2.5276,2.5287,2.5291,2.5322,2.5341,2.5334,2.5357,2.5384,2.54,2.5412,2.5416,2.5401,2.5417,2.5414,2.5411,2.5364,2.5356,2.5349,0,0,0,0,0,0,2.5188,2.523,2.5248,2.5243,2.5261,2.5296,2.529,2.5313,2.5326,2.533,2.5368,2.5374,2.537,2.5386,2.5398,2.5385,2.5412,2.541,2.5375,2.5368,2.5361,2.5358,2.544,0,0,0,0,0,2.5176,2.5182,2.5218,2.5209,2.5218,2.5252,2.5258,2.528,2.53,2.5308,2.5331,2.5349,2.5359,2.5364,2.5375,2.5364,2.5371,2.5355,2.5349,2.5344,2.5341,2.5336,2.5329,2.5401,2.5401,2.5401,0,0,2.5151,2.5174,2.5176,2.5199,2.5216,2.5221,2.5258,2.5261,2.5265,2.5309,2.531,2.5327,2.535,2.5344,2.5343,2.5357,2.5323,2.534,2.5336,2.5336,2.5332,2.5325,2.5319,2.5399,2.5399,2.5399,0,0,2.5107,2.5126,2.5121,2.5136,2.5161,2.5184,2.5182,2.5214,2.5227,2.5229,2.5261,2.5266,2.5281,2.5296,2.5305,2.5266,2.529,2.5268,2.5236,2.523,2.5224,2.5219,2.5205,2.5199,2.5266,2.5265,2.5265,0,2.5073,2.5082,2.5115,2.5116,2.5125,2.5165,2.516,2.5173,2.52,2.5205,2.5221,2.524,2.5258,2.5256,2.5246,2.5253,2.5252,2.5265,2.5222,2.5218,2.5214,2.52,2.5195,2.5263,2.5263,2.5263,2.5263,0,2.5038,2.5043,2.5036,2.506,2.5069,2.5067,2.5099,2.5103,2.5125,2.5145,2.5146,2.5169,2.5185,2.5186,2.5207,2.5186,2.5194,2.5215,2.5243,2.5204,2.5192,2.5187,2.5258,2.5259,2.526,2.5261,0,0,2.4963,2.5006,2.5002,2.5014,2.5043,2.5048,2.5047,2.5062,2.5065,2.5081,2.5081,2.5093,2.5112,2.5123,2.5146,2.5141,2.5107,2.5163,2.5164,2.5151,2.5085,2.5068,2.5062,2.5123,2.5122,2.5122,2.5083,0,2.4925,2.4926,2.4956,2.4949,2.4954,2.499,2.499,2.5007,2.5026,2.5033,2.5054,2.5061,2.5087,2.5093,2.509,2.5112,2.5094,2.5115,2.5123,2.5123,2.5116,2.5056,2.5039,2.5001,2.5078,2.5078,2.5077,0,2.488,2.4894,2.4887,2.4916,2.4919,2.4918,2.4934,2.494,2.496,2.4974,2.4985,2.5011,2.5012,2.5038,2.5038,2.5052,2.5057,2.5068,2.5067,2.5069,2.5098,2.5056,2.499,2.4984,2.507,2.5071,2.5071,0,2.4826,2.4843,2.4841,2.485,2.4883,2.4881,2.4895,2.4917,2.4924,2.4937,2.4942,2.4955,2.4962,2.4972,2.5,2.5016,2.4997,2.5026,2.5009,2.5008,2.5003,2.5003,2.4937,2.5006,2.5006,2.5006,2.5006,0,2.478,2.4774,2.4817,2.4816,2.481,2.4844,2.4837,2.4855,2.4873,2.4875,2.4908,2.4909,2.4947,2.4952,2.4974,2.4971,2.4974,2.4985,2.4991,2.4982,2.498,2.4986,2.4989,2.5005,2.5005,2.5005,2.5006,0,2.4719,2.4747,2.4747,2.4779,2.4787,2.4781,2.4808,2.4808,2.4828,2.4831,2.4833,2.4866,2.4873,2.4902,2.4917,2.4932,2.4922,2.4933,2.4915,2.4919,2.49,2.4901,2.4835,2.4828,2.4901,2.49,2.49,0,2.4688,2.4684,2.4715,2.4719,2.4731,2.4737,2.4744,2.4777,2.4783,2.4805,2.4802,2.4812,2.4823,2.4833,2.4858,2.4869,2.4881,2.4857,2.4883,2.4874,2.488,2.488,2.488,2.4851,2.485,2.4849,2.4849,0,2.4629,2.4643,2.4652,2.4666,2.4673,2.4686,2.47,2.4701,2.4737,2.4742,2.475,2.4758,2.4773,2.4783,2.4798,2.4812,2.4836,2.484,2.4837,2.4828,2.4817,2.4822,2.4899,2.4842,2.4842,2.4843,2.4843,2.4844,2.4582,2.458,2.4602,2.461,2.4624,2.4636,2.4638,2.4658,2.4666,2.4681,2.4699,2.4705,2.4724,2.4747,2.4759,2.4764,2.4777,2.4772,2.4771,2.4769,2.4765,2.4816,2.4766,2.4767,2.4767,2.4767,2.4767,0,2.4525,2.454,2.4548,2.4567,2.4573,2.4595,2.4612,2.4616,2.4621,2.4637,2.4646,2.4655,2.4664,2.4689,2.47,2.4699,2.4711,2.4701,2.4702,2.4704,2.4752,2.4754,2.4692,2.4692,2.4692,2.4692,2.4692,2.4692,2.4496,2.4494,2.451,2.4515,2.4531,2.4537,2.4544,2.4555,2.4568,2.4577,2.4585,2.4601,2.462,2.4633,2.4643,2.465,2.4652,2.4639,2.465,2.4694,2.4701,2.4708,2.471,2.4639,2.4639,2.4601,2.4601,2.4601]}]]